Temp
97 92 88 93 95 96 94 90 88 92 96 93 90 87 89 94 95 93 94 92 93 94 97 97 97 97 97 96 94 92 90 88 88 85 84 84 85 85 88 84 88 87 86 86
92 87 96 99 97 94 91 89 88 93 95 92 89 88 91 93 93 94 94 93 94 95 95 95 95 96 96 94 93 92 91 88 89 90 86 85 87 92 93 92 90 90 90 86
89 92 98 96 93 90 90 88 89 88 92 94 86 85 87 92 94 95 97 97 97 95 95 95 94 95 97 94 92 91 90 90 89 88 89 89 90 88 91 93 92 91 89 89
92 98 94 93 90 92 85 94 93 90 86 79 91 75 82 88 89 92 94 96 97 97 98 98 97 95 97 95 95 92 91 90 90 89 90 86 85 86 88 88 90 87 87 87
88 93 91 89 91 95 88 96 91 90 87 85 82 80 80 81 84 89 93 95 97 98 98 98 99 97 98 96 95 93 90 89 89 88 87 88 87 89 90 88 84 83 84 86
94 101 97 95 98 97 96 91 90 90 87 75 82 76 82 79 85 90 93 96 97 98 98 99 100 98 97 96 94 92 88 86 87 88 87 85 84 83 84 84 83 86 87 88
90 92 98 100 93 96 93 87 75 72 73 73 86 82 83 92 95 95 95 95 98 99 98 97 97 95 93 92 92 91 86 84 86 87 87 86 84 83 81 82 85 81 86 86
82 78 92 97 93 88 88 88 78 64 70 76 84 74 83 95 98 98 99 100 99 97 98 97 96 94 92 92 90 90 86 84 86 86 85 84 84 86 86 86 83 84 84 85
83 83 97 97 99 96 87 82 94 83 83 77 81 85 92 93 93 94 96 98 98 97 97 97 97 95 92 91 89 88 86 85 86 87 84 84 83 82 82 82 82 85 83 86
93 81 94 96 99 98 92 95 81 83 67 66 77 77 80 85 89 93 94 95 97 99 97 97 97 94 93 93 91 90 88 85 86 87 86 87 85 84 83 82 81 81 81 82
96 90 87 93 88 87 88 85 87 88 81 72 71 77 91 88 91 91 94 95 97 98 96 96 96 95 93 93 92 90 89 87 86 86 86 85 84 85 84 82 82 82 82 81
95 90 81 86 95 97 95 88 88 77 73 80 78 78 95 94 95 95 94 96 97 98 96 96 97 95 93 91 92 91 91 89 88 89 86 85 84 83 83 82 82 82 81 82
95 86 77 80 89 93 88 91 92 91 88 74 73 77 93 94 93 94 94 97 96 95 95 95 97 94 92 91 90 91 92 92 92 89 87 85 83 82 81 81 82 82 81 81
90 88 81 77 81 88 82 86 90 89 79 80 79 81 87 90 90 92 94 95 96 95 94 94 94 94 92 90 89 89 90 93 93 91 88 85 83 82 82 82 82 82 82 81
93 80 85 87 90 90 88 86 87 84 85 79 82 79 87 90 90 91 93 94 94 93 94 93 93 93 90 89 88 88 89 89 91 88 86 84 84 83 82 81 81 82 82 81
92 80 84 82 89 89 86 89 89 88 88 86 87 84 93 94 94 92 92 93 92 93 93 93 93 92 90 88 87 87 87 88 88 85 84 84 84 83 82 82 82 82 81 81
85 84 80 75 86 86 79 85 87 88 91 88 81 87 91 89 89 90 90 91 91 93 93 92 92 91 89 89 88 87 87 88 86 84 84 84 83 82 82 82 82 80 80 81
84 81 82 77 80 66 85 94 92 89 90 91 90 90 90 90 92 93 93 91 91 93 94 93 93 92 92 92 91 90 90 87 85 83 83 83 83 82 82 82 80 80 80 79
89 82 78 72 73 79 83 86 87 85 84 91 88 90 90 93 92 90 95 94 92 92 94 95 95 95 92 91 91 89 88 87 85 83 82 83 83 82 82 81 80 80 80 79
88 84 78 76 68 64 78 87 93 92 76 92 92 89 88 91 82 84 91 93 92 93 94 93 94 94 91 91 93 89 87 86 84 84 84 85 84 83 82 81 80 81 80 79
76 76 74 74 71 76 88 90 91 71 74 90 91 90 89 86 89 90 93 92 93 93 93 93 93 90 90 91 92 88 87 85 86 87 87 85 84 83 82 81 68 70 78 78
73 73 73 75 70 65 90 90 79 80 88 89 90 90 89 91 93 94 93 91 92 91 91 92 90 90 91 91 89 86 85 87 87 86 85 85 83 84 85 78 77 79 77 75
73 77 73 73 67 81 89 83 88 88 85 86 86 89 90 90 91 94 93 91 92 91 91 93 91 89 90 90 88 84 84 85 84 84 83 83 82 82 81 79 76 78 76 73
77 82 79 77 80 82 83 88 87 88 86 88 90 90 90 88 91 92 92 91 91 91 91 92 90 89 87 88 86 83 83 84 83 82 81 80 79 77 80 76 82 78 75 68
80 81 78 78 81 81 83 82 84 85 87 88 90 90 89 90 90 91 89 88 88 88 89 88 86 85 84 84 83 84 83 82 79 80 80 79 81 79 77 77 73 75 64 63
85 79 76 74 75 75 76 81 85 84 84 87 87 88 90 91 90 90 86 86 86 83 84 79 79 84 81 81 80 80 81 80 79 79 80 81 82 82 82 70 71 47 48 44
MSLP
1000.26 999.46 998.50 998.33 998.35 997.93 998.13 998.56 998.49 999.21 1000.23 1001.19 1001.71 1003.23 1004.19 1004.72 1005.04 1005.58 1006.17 1007.13 1007.68 1008.18 1009.14 1010.21 1010.83 1011.55 1011.81 1012.18 1012.89 1013.58 1014.15 1014.83 1015.11 1015.39 1015.62 1015.70 1015.81 1015.89 1015.86 1015.91 1015.84 1015.96 1016.09 1016.02
999.74 998.67 998.33 998.35 998.55 998.42 998.64 998.38 998.35 999.01 999.96 1000.90 1001.22 1001.89 1003.37 1004.22 1004.46 1005.05 1005.70 1006.38 1006.88 1007.65 1008.69 1009.68 1010.53 1011.06 1011.45 1012.00 1012.58 1013.27 1013.81 1014.48 1014.78 1014.76 1015.38 1015.64 1015.37 1014.70 1014.50 1014.57 1015.05 1015.20 1015.30 1015.66
998.19 998.35 998.25 998.26 998.41 998.62 998.92 998.41 998.39 998.83 1000.05 1000.98 1001.27 1001.57 1002.41 1003.59 1004.20 1004.67 1005.15 1005.87 1006.14 1006.93 1007.70 1008.85 1009.74 1010.35 1010.88 1011.64 1012.38 1013.01 1013.60 1013.99 1014.50 1014.86 1014.82 1014.94 1014.94 1014.84 1014.26 1013.99 1014.47 1014.58 1015.17 1015.24
998.05 997.79 998.13 998.08 998.38 998.83 998.31 998.61 998.69 999.03 999.75 999.77 1000.55 1000.09 1001.56 1002.89 1003.72 1003.91 1004.44 1005.04 1005.56 1006.18 1007.03 1007.81 1008.78 1009.68 1010.24 1011.20 1012.07 1012.88 1013.47 1013.88 1014.29 1014.72 1014.56 1014.91 1015.03 1014.56 1014.54 1014.89 1014.89 1015.33 1015.40 1015.35
997.76 997.06 997.59 997.88 997.92 998.37 998.03 998.07 999.04 999.30 999.34 999.76 1000.01 1000.37 1001.21 1002.21 1002.16 1002.90 1003.54 1004.11 1004.74 1005.60 1006.30 1006.86 1007.81 1008.90 1009.77 1010.91 1011.78 1012.65 1013.44 1013.98 1014.42 1014.76 1015.01 1014.91 1014.60 1014.55 1014.68 1015.05 1015.47 1015.53 1015.30 1015.21
997.00 997.35 997.59 997.41 997.52 998.00 998.54 998.99 999.29 999.58 999.34 999.17 999.27 1001.09 998.97 1000.40 1000.59 1001.23 1002.36 1003.11 1004.04 1004.66 1005.65 1006.31 1007.30 1008.39 1009.50 1010.76 1011.61 1012.62 1013.53 1014.05 1014.44 1014.72 1014.94 1015.14 1015.17 1015.27 1015.23 1015.19 1015.44 1014.80 1014.76 1014.53
996.84 996.67 996.98 996.93 997.11 997.98 998.77 998.71 998.82 998.83 998.60 998.24 998.47 998.73 998.57 998.80 999.37 1000.00 1000.36 1001.92 1002.82 1003.98 1004.92 1005.91 1006.72 1008.07 1009.49 1010.49 1011.41 1012.41 1013.36 1013.92 1014.32 1014.50 1014.71 1014.90 1015.17 1015.40 1015.41 1015.34 1014.98 1015.26 1014.60 1014.60
995.89 996.21 996.26 996.92 996.91 997.67 998.22 997.98 997.44 997.48 997.45 997.47 998.55 998.91 998.71 998.92 999.35 999.87 1000.18 1000.50 1002.17 1003.30 1004.36 1005.41 1006.47 1007.86 1009.48 1010.37 1011.20 1011.95 1012.98 1013.53 1013.94 1014.28 1014.64 1015.00 1015.29 1015.04 1015.01 1014.87 1015.41 1015.30 1015.02 1014.82
994.95 995.17 995.99 996.57 996.71 997.16 997.62 997.83 997.43 997.24 997.76 997.88 997.69 998.05 998.44 999.13 999.68 1000.12 1000.10 1000.50 1000.96 1002.45 1003.99 1004.97 1006.07 1007.52 1009.13 1010.08 1010.99 1011.64 1012.42 1013.05 1013.59 1013.91 1014.51 1014.82 1015.07 1015.26 1015.21 1015.44 1015.60 1015.19 1015.22 1014.81
993.91 994.48 994.91 995.78 996.48 996.54 996.80 997.59 997.72 997.69 997.67 997.30 997.30 997.49 997.48 998.57 999.18 999.53 1000.03 1000.56 1000.92 1001.41 1003.26 1004.55 1005.54 1007.09 1008.59 1009.59 1010.65 1011.36 1011.95 1012.57 1013.16 1013.55 1013.92 1014.05 1014.43 1014.82 1015.13 1015.38 1015.44 1015.44 1015.33 1015.26
994.30 994.25 994.90 995.63 995.97 996.09 997.22 997.26 997.19 997.10 997.66 997.12 997.09 996.59 997.15 998.31 998.88 999.39 999.73 1000.31 1000.72 1001.09 1002.69 1004.12 1005.15 1006.62 1008.05 1009.13 1010.06 1010.85 1011.46 1012.05 1012.67 1013.17 1013.50 1013.93 1014.25 1014.42 1014.75 1015.04 1015.05 1014.98 1014.97 1015.01
994.96 994.81 994.75 994.94 995.94 996.53 996.18 996.63 997.32 997.37 997.66 997.95 997.86 997.31 997.74 998.29 998.67 999.37 999.98 1000.16 1000.79 1001.13 1002.50 1003.66 1004.57 1005.93 1007.38 1008.51 1009.30 1010.17 1010.73 1011.29 1011.93 1012.38 1013.01 1013.59 1014.02 1014.29 1014.46 1014.65 1014.72 1014.70 1014.65 1014.63
994.96 995.08 994.96 995.15 995.43 995.81 995.92 996.13 996.15 996.60 996.94 997.65 997.59 997.37 998.20 998.59 999.12 999.50 999.94 999.99 1000.60 1001.41 1002.26 1003.21 1003.96 1005.11 1006.65 1007.83 1008.69 1009.43 1010.01 1010.38 1010.95 1011.72 1012.53 1013.12 1013.66 1013.96 1014.20 1014.40 1014.42 1014.44 1014.37 1014.27
995.20 995.07 995.15 994.53 994.71 995.07 995.91 996.24 996.13 996.04 995.95 996.20 996.80 997.09 997.98 998.00 998.65 999.33 999.79 1000.14 1000.40 1001.02 1001.71 1002.59 1003.41 1004.27 1005.90 1007.21 1008.29 1009.13 1009.53 1009.84 1010.45 1011.15 1011.82 1012.49 1013.12 1013.58 1013.79 1013.88 1014.05 1014.06 1013.99 1013.83
995.38 995.12 995.33 995.07 994.68 994.32 994.80 995.25 995.78 995.89 996.13 996.20 995.94 997.46 997.51 998.05 999.05 999.49 1000.03 1000.18 1000.24 1000.79 1001.39 1002.06 1002.91 1003.74 1005.30 1006.78 1007.93 1008.91 1009.29 1009.87 1010.31 1010.97 1011.69 1012.17 1012.64 1013.09 1013.37 1013.53 1013.59 1013.55 1013.51 1013.40
995.68 995.38 995.62 995.11 994.52 994.34 993.91 994.18 994.52 995.09 995.67 995.99 996.12 996.14 996.95 997.97 998.82 999.49 999.85 1000.06 1000.22 1000.54 1001.15 1001.84 1002.70 1003.72 1004.98 1006.39 1007.62 1008.56 1009.00 1009.54 1010.37 1010.98 1011.39 1011.82 1012.16 1012.51 1012.78 1012.86 1012.93 1012.92 1012.93 1012.86
995.40 995.42 995.42 994.90 994.63 994.34 993.78 994.20 994.46 994.54 994.85 995.56 995.91 996.47 997.33 998.35 999.11 999.56 999.89 1000.01 1000.12 1000.16 1000.57 1001.47 1002.21 1003.28 1004.48 1005.97 1007.28 1008.06 1008.62 1009.25 1009.87 1010.55 1011.02 1011.39 1011.74 1012.01 1012.21 1012.29 1012.39 1012.56 1012.55 1012.37
995.17 995.73 995.54 995.09 994.96 993.97 993.98 994.23 994.45 994.39 994.73 995.39 996.28 997.02 998.07 998.86 999.15 999.44 999.71 999.85 1000.02 1000.01 1000.25 1001.01 1001.95 1002.97 1004.24 1005.62 1006.84 1007.69 1008.10 1008.82 1009.44 1010.03 1010.53 1010.90 1011.20 1011.45 1011.59 1011.70 1011.89 1012.05 1012.00 1011.87
995.98 996.20 995.68 995.56 995.02 994.49 994.50 995.01 995.04 995.01 995.20 995.65 996.58 997.48 998.37 998.75 998.90 999.00 999.10 999.80 1000.01 1000.15 1000.25 1000.71 1001.64 1002.60 1004.00 1005.28 1006.28 1007.16 1007.58 1008.14 1008.88 1009.45 1009.88 1010.20 1010.49 1010.72 1010.91 1011.06 1011.17 1011.39 1011.32 1011.45
996.54 996.95 996.90 996.01 995.40 994.55 995.70 994.57 995.11 995.71 995.57 996.02 996.54 997.39 998.50 998.85 998.85 999.00 999.79 1000.04 1000.09 1000.39 1000.74 1001.21 1001.77 1002.65 1004.11 1005.06 1005.64 1006.54 1007.11 1007.70 1008.14 1008.71 1009.13 1009.45 1009.74 1009.97 1010.14 1010.44 1011.02 1011.46 1011.54 1011.07
996.46 996.99 996.56 996.34 995.92 995.17 994.92 995.31 996.74 997.43 997.55 997.16 997.26 997.87 998.52 998.86 999.19 999.80 1000.13 1000.33 1000.47 1000.71 1001.20 1001.66 1002.16 1002.98 1003.98 1004.79 1005.26 1005.86 1006.47 1007.02 1007.49 1008.10 1008.43 1008.75 1009.11 1009.43 1009.71 1010.11 1011.05 1012.66 1011.03 1010.76
995.87 996.11 996.19 996.64 996.22 995.74 995.82 996.12 997.40 998.47 998.07 998.10 998.42 998.72 999.00 999.27 999.20 999.26 1000.07 1000.46 1000.64 1000.90 1001.51 1002.08 1002.62 1003.12 1003.96 1004.71 1005.34 1005.81 1006.24 1006.76 1007.36 1007.79 1008.01 1008.26 1008.56 1008.98 1009.01 1009.66 1010.12 1010.13 1010.25 1010.33
996.48 995.36 996.25 997.35 998.08 997.88 997.71 998.23 998.74 999.46 999.27 999.31 999.64 999.71 999.69 999.61 999.36 998.86 999.17 1000.24 1000.58 1000.87 1001.45 1002.04 1002.61 1003.31 1003.84 1004.51 1005.37 1006.01 1006.46 1006.93 1007.23 1007.51 1007.77 1008.11 1008.61 1008.90 1009.16 1009.38 1009.98 1009.85 1009.88 1010.22
997.79 997.31 997.23 997.94 998.57 999.10 999.39 999.78 1000.33 1000.01 999.89 999.88 999.96 999.91 999.81 999.60 999.51 999.03 999.23 1000.13 1000.63 1001.01 1001.55 1002.08 1002.63 1003.26 1003.97 1004.83 1005.72 1006.51 1006.96 1007.06 1007.17 1007.31 1007.81 1008.32 1008.69 1009.01 1008.86 1009.43 1009.19 1009.35 1009.74 1010.19
997.94 998.66 998.45 998.72 999.22 1000.02 1000.22 1001.17 1001.01 1000.64 1000.58 1000.42 1000.30 1000.06 999.88 999.58 999.33 999.13 999.91 1000.92 1001.39 1001.98 1002.42 1003.00 1003.57 1003.91 1004.35 1005.36 1006.07 1006.54 1006.93 1007.23 1007.56 1007.63 1007.86 1008.16 1008.19 1008.36 1008.44 1009.10 1010.02 1010.25 1011.23 1011.49
998.76 998.95 999.53 999.78 1001.56 1001.62 1001.71 1001.92 1001.57 1001.27 1001.15 1001.01 1000.71 1000.28 999.92 999.44 999.20 999.89 1001.19 1002.11 1002.44 1003.06 1003.98 1004.41 1003.90 1004.71 1005.44 1005.80 1006.43 1006.96 1007.30 1007.59 1007.76 1007.68 1007.69 1007.42 1007.39 1007.61 1007.88 1009.32 1010.39 1011.72 1012.10 1012.40
Wind_Speed
19 15 16 18 18 17 13 14 14 8 14 12 6 16 16 14 14 15 16 16 14 13 15 13 11 9 10 8 9 8 6 5 5 5 4 4 5 5 6 4 9 7 7 8
19 20 18 15 12 15 9 13 11 11 9 8 5 14 15 16 14 15 15 16 17 16 17 16 13 12 11 9 9 9 7 7 6 5 2 3 5 4 4 6 5 7 5 2
19 21 19 15 14 12 15 17 14 8 11 13 13 13 16 16 16 14 16 16 17 18 19 17 15 13 12 11 10 9 8 6 4 4 6 6 6 8 8 2 3 3 6 6
16 16 19 16 16 16 18 15 11 10 9 14 17 12 18 17 17 19 18 19 17 17 17 18 18 16 13 11 10 9 8 6 4 2 0 3 6 6 6 5 5 7 8 7
20 16 15 18 18 19 5 13 9 15 13 16 14 14 17 8 18 21 20 19 19 18 18 18 18 18 15 13 11 10 8 6 5 3 3 3 3 4 3 3 4 6 7 5
18 12 18 18 17 14 12 9 8 11 11 14 15 10 12 19 27 24 22 22 21 20 19 17 17 18 15 13 12 11 10 8 6 4 4 2 3 3 5 5 6 6 5 4
20 22 24 16 15 12 13 12 9 10 12 13 6 12 6 7 9 7 21 23 23 21 20 18 18 18 16 16 14 12 11 9 7 6 3 2 2 4 5 5 6 5 5 4
15 19 20 13 14 11 15 14 12 8 10 11 9 8 12 9 9 7 9 22 20 21 19 20 19 18 17 16 15 13 12 10 8 6 4 1 3 5 4 3 5 6 6 6
18 19 20 21 20 19 16 17 17 13 5 10 4 12 10 10 7 4 8 11 21 22 19 20 20 19 18 17 16 14 13 10 9 7 5 3 4 4 6 5 5 7 3 6
13 14 26 21 21 14 9 10 11 7 8 10 9 5 5 10 9 9 9 11 13 21 21 19 19 19 18 17 15 14 13 11 9 7 5 4 3 4 4 5 6 6 7 7
17 11 18 18 14 15 13 11 13 13 7 7 6 4 15 6 7 4 6 6 11 17 19 19 19 20 18 17 16 15 13 12 9 7 5 3 4 5 4 6 6 6 7 7
19 9 14 20 19 21 20 22 17 11 11 8 10 3 6 6 6 4 2 4 9 13 18 20 20 20 19 18 17 16 14 12 10 8 5 5 5 5 5 6 7 7 8 8
18 15 13 18 19 13 15 18 21 21 15 18 9 4 8 4 1 2 7 7 11 13 18 19 19 20 19 19 16 16 14 13 11 9 7 6 6 6 6 6 6 7 8 9
9 18 16 15 20 16 20 20 18 20 13 11 17 6 14 11 5 2 7 8 10 14 18 19 18 20 19 17 15 14 13 11 10 6 6 6 6 7 7 7 6 7 8 9
15 14 17 21 24 21 20 22 22 22 18 18 14 8 10 8 8 7 10 11 8 12 16 19 20 17 17 17 15 14 12 10 6 7 7 6 6 7 8 7 8 8 9 9
15 14 17 20 20 22 20 19 23 22 20 18 19 15 5 3 3 8 10 11 13 14 15 16 19 18 19 18 17 16 13 11 10 8 7 7 6 7 8 8 8 8 9 9
14 14 14 18 19 21 16 15 19 19 18 15 17 8 8 7 11 10 10 11 11 14 11 16 18 17 17 18 16 16 13 11 11 10 8 8 8 8 8 8 7 8 9 10
9 11 12 13 17 21 12 12 12 18 13 8 9 8 4 8 9 9 8 11 11 13 13 14 15 17 18 18 18 14 13 11 10 10 10 10 9 9 8 8 9 8 8 8
5 9 11 14 14 10 11 5 12 12 13 8 6 7 6 10 6 15 7 2 4 8 9 11 14 17 17 17 15 13 12 12 12 12 12 11 10 10 9 9 8 8 7 8
12 9 12 13 17 19 17 3 3 8 11 11 11 6 5 9 9 10 5 4 5 4 6 9 13 16 16 16 16 13 12 12 12 13 12 11 10 9 9 9 7 6 8 9
14 11 15 14 16 16 11 17 24 20 4 8 6 1 4 7 6 3 4 5 6 7 10 12 14 14 14 13 11 11 12 13 14 13 12 10 9 8 8 7 4 12 8 8
8 15 15 15 18 19 5 12 14 7 4 9 7 5 7 11 11 8 7 8 9 12 12 14 13 13 13 11 8 8 9 9 9 10 11 9 7 7 7 6 7 8 7 8
15 6 6 7 6 10 12 10 8 7 6 6 9 11 12 14 17 16 11 11 11 13 13 13 12 11 9 8 5 7 7 8 10 10 10 9 5 8 7 9 6 6 10 5
12 3 5 6 10 9 5 8 10 9 9 10 10 11 13 15 16 17 6 8 9 10 11 11 11 9 7 3 4 6 7 8 10 10 5 7 8 9 7 5 6 8 5 7
5 1 5 10 5 0 11 10 10 8 7 8 9 10 12 14 14 11 6 5 5 5 6 5 3 5 5 4 1 3 3 3 6 7 7 7 7 7 5 5 5 6 8 6
7 6 6 4 8 7 9 9 9 10 9 10 9 9 8 9 8 8 8 7 8 8 5 4 7 2 5 6 5 4 1 4 5 6 8 7 5 6 8 8 8 14 11 8
Wind_Direction
203 213 212 197 216 225 185 236 214 168 158 189 210 138 155 178 168 169 167 171 175 174 152 157 159 167 164 173 161 168 157 172 189 203 215 223 234 233 252 250 263 262 265 273
189 218 210 202 221 247 264 214 233 160 146 242 171 152 165 182 187 174 170 179 171 171 162 160 171 175 176 171 164 166 173 176 205 184 226 248 246 252 258 221 215 237 259 349
204 207 229 216 215 224 231 251 219 182 179 238 155 222 164 189 190 185 180 184 176 174 170 173 181 183 177 161 168 163 176 174 199 229 201 201 223 217 228 249 323 60 329 300
227 212 205 212 220 212 222 228 225 211 206 215 214 246 170 185 205 192 196 185 188 182 184 180 179 183 183 159 163 147 167 154 160 203 66 53 300 294 5 300 349 334 294 313
214 187 185 202 209 199 254 175 218 252 212 268 164 245 165 216 204 204 205 200 193 188 191 186 183 173 176 156 165 160 142 155 129 142 318 290 286 327 327 330 316 280 249 263
216 188 198 201 211 193 129 191 201 234 248 229 217 238 181 193 207 199 198 208 200 192 191 191 182 164 163 165 162 152 158 157 159 187 188 263 291 312 309 346 307 281 317 299
226 192 199 219 182 147 202 193 206 215 219 241 206 232 241 330 168 238 191 199 199 201 194 194 183 163 162 175 167 163 164 166 175 188 192 266 291 295 276 268 297 343 288 313
199 186 201 194 196 177 220 210 236 179 234 225 119 236 260 250 354 158 270 189 200 194 200 194 189 166 175 177 172 167 169 175 183 187 187 195 281 287 288 254 344 302 333 319
196 197 187 196 211 190 189 233 242 287 194 273 226 198 191 159 184 228 223 236 190 191 199 199 188 170 182 184 180 170 174 176 185 185 187 214 244 268 317 319 297 278 322 289
194 209 185 202 207 207 278 188 231 240 269 243 241 213 269 147 207 203 207 225 239 189 186 203 194 176 185 186 181 178 174 177 185 199 203 236 238 231 243 266 269 289 291 288
260 246 172 196 208 196 208 236 236 262 251 287 260 231 113 127 142 195 211 214 217 212 180 203 194 183 186 188 182 184 178 177 187 198 221 245 253 229 222 253 266 274 281 284
229 233 242 184 203 225 229 204 228 238 223 256 293 310 92 127 138 144 309 192 211 205 188 204 193 186 186 192 187 190 185 182 191 204 197 222 225 232 252 258 276 288 287 288
211 232 230 238 206 216 248 245 217 216 230 198 238 191 103 95 134 333 312 275 184 211 193 203 199 187 189 194 192 192 191 186 198 186 197 213 222 233 241 261 272 284 290 289
242 234 229 246 227 204 208 239 251 261 236 240 213 223 174 191 160 302 259 234 268 194 204 202 205 194 190 190 187 198 193 195 194 203 204 216 213 228 245 258 267 271 281 295
228 233 242 238 258 220 222 211 223 241 250 269 277 167 274 29 355 336 301 288 252 241 217 202 204 197 181 182 182 195 191 193 219 187 209 225 218 226 246 256 268 278 287 291
209 232 236 248 252 243 242 227 221 218 229 251 264 274 354 322 342 295 279 272 255 233 228 228 203 200 182 185 185 192 187 187 192 204 216 231 235 236 250 261 262 275 288 287
200 235 231 238 236 247 241 245 254 252 233 238 263 288 32 340 307 301 294 282 272 268 228 214 209 205 174 185 187 187 185 189 192 200 214 226 227 232 242 258 269 284 283 283
190 220 250 244 235 237 233 238 283 250 243 221 248 292 323 302 287 292 276 268 266 266 233 208 209 200 177 188 187 186 183 189 194 203 215 221 225 233 238 244 255 266 264 283
231 272 231 254 251 213 219 185 228 243 254 222 232 268 291 293 320 273 217 231 262 256 243 206 197 188 173 186 179 181 195 189 200 212 216 218 224 230 236 245 251 255 266 278
261 210 269 250 266 244 278 271 17 336 240 222 201 179 261 287 287 78 107 146 135 155 177 179 175 165 167 193 176 189 197 207 213 215 220 221 226 231 240 249 276 279 270 259
211 231 239 235 256 261 300 131 186 213 193 32 45 57 287 271 306 63 147 152 145 153 159 168 163 169 183 182 195 187 207 214 218 221 223 220 225 227 248 252 84 262 257 274
218 209 219 246 253 246 133 159 219 51 40 31 18 347 331 315 285 237 209 188 173 159 164 173 176 181 174 183 197 231 235 227 226 230 234 235 214 228 237 240 226 242 255 261
213 354 9 359 51 47 43 88 51 3 5 356 330 308 301 289 278 270 194 199 198 178 177 184 177 176 187 178 209 249 254 258 248 241 224 237 241 236 252 257 244 254 239 268
300 1 284 304 115 66 42 57 26 17 360 338 316 300 288 270 272 268 191 188 198 181 180 183 182 185 186 187 221 237 259 255 244 236 225 246 245 244 258 291 261 247 273 209
40 306 267 259 212 217 92 38 2 2 353 333 319 299 285 272 252 236 159 174 150 143 122 135 146 174 123 73 144 221 223 191 229 219 220 226 234 217 233 171 359 339 49 17
278 291 271 5 37 337 57 359 4 7 353 334 322 316 292 274 234 132 142 162 146 129 127 107 102 80 97 136 128 106 130 203 237 234 222 239 283 317 300 123 115 53 60 62